{"data":{"norad_id":63976,"intl_designator":"2025-099AA","name":"STARLINK-34090","alt_names":[],"object_type":"PAYLOAD","status":"ACTIVE","operator":null,"country":"US","launch_date":"2025-05-13","launch_site_code":"AFETR","launch_vehicle":null,"mission":null,"orbit_class":"UNKNOWN","rcs_meters":null,"size_class":null,"mass_kg":null,"dimensions":null,"purposes":["comms"],"wikipedia_slug":null,"has_3d_model":false,"image_url":null,"decayed_at":null,"tle_current":{"epoch":"2026-09-20T23:41:32.587008Z","epoch_age_seconds":101643,"freshness":"FRESH","line1":"1 63976U 25099AA  26263.98718272  .00010172  00000+0  37867-3 0  9993","line2":"2 63976  42.9974 149.8858 0001247 272.5577  87.5132 15.27579010 77153","mean_motion":15.2757901,"eccentricity":0.0001247,"inclination_deg":42.9974,"raan_deg":149.8858,"arg_perigee_deg":272.5577,"mean_anomaly_deg":87.5132,"bstar":0.00037867,"rev_number":7715,"period_min":94.266809806453,"perigee_km":482.19647018157,"apogee_km":483.90765073324,"semimajor_km":6861.1890604574,"source":"CELESTRAK","updated_at":"2026-09-21T09:00:35.178755Z"}}}